| time (UTC) | temp C | wind direction | speed KPH | gust KPH | rain 1hr cm | rain 24hr cm | rain mn cm | humidity % | barometer mb |
| 20260507031044 | 7 | 230 | 0.0 | 4.8 | 0.00 | 0.00 | 0.00 | 81 | 996.0 |
| 20260507030543 | 7 | 242 | 0.0 | 4.8 | 0.00 | 0.00 | 0.00 | 81 | 996.1 |
| 20260507025543 | 7 | 232 | 0.0 | 1.6 | 0.00 | 0.00 | 0.00 | 81 | 996.0 |
| 20260507025045 | 7 | 235 | 0.0 | 1.6 | 0.00 | 0.00 | 0.00 | 81 | 996.0 |
| 20260507024603 | 7 | 246 | 0.0 | 3.2 | 0.00 | 0.00 | 0.00 | 80 | 996.0 |
| 20260507024043 | 7 | 259 | 0.0 | 3.2 | 0.00 | 0.00 | 0.00 | 80 | 996.0 |
| 20260507023543 | 7 | 230 | 0.0 | 1.6 | 0.00 | 0.00 | 0.00 | 80 | 996.0 |
| 20260507023043 | 7 | 254 | 0.0 | 1.6 | 0.00 | 0.00 | 0.00 | 80 | 996.0 |
| 20260507022543 | 7 | 260 | 0.0 | 0.0 | 0.00 | 0.00 | 0.00 | 80 | 996.0 |
| 20260507022043 | 7 | 256 | 0.0 | 1.6 | 0.00 | 0.00 | 0.00 | 80 | 995.9 |
| 20260507021551 | 7 | 263 | 0.0 | 14.5 | 0.00 | 0.00 | 0.00 | 80 | 995.9 |
| 20260507021045 | 7 | 236 | 0.0 | 9.7 | 0.00 | 0.00 | 0.00 | 80 | 996.0 |
| 20260507020543 | 7 | 235 | 0.0 | 8.0 | 0.00 | 0.00 | 0.00 | 80 | 995.9 |
| 20260507020054 | 7 | 244 | 0.0 | 4.8 | 0.00 | 0.00 | 0.00 | 80 | 996.0 |
| 20260507015542 | 7 | 241 | 0.0 | 11.3 | 0.00 | 0.00 | 0.00 | 79 | 996.0 |
| 20260507015046 | 7 | 233 | 0.0 | 11.3 | 0.00 | 0.00 | 0.00 | 79 | 996.0 |
| 20260507014552 | 7 | 241 | 0.0 | 6.4 | 0.00 | 0.00 | 0.00 | 79 | 996.0 |
| 20260507014042 | 7 | 259 | 0.0 | 6.4 | 0.00 | 0.00 | 0.00 | 79 | 996.0 |
| 20260507013543 | 8 | 245 | 0.0 | 1.6 | 0.00 | 0.00 | 0.00 | 78 | 996.0 |
| 20260507013043 | 8 | 246 | 0.0 | 1.6 | 0.00 | 0.00 | 0.00 | 78 | 996.0 |
| 20260507012541 | 8 | 236 | 0.0 | 1.6 | 0.00 | 0.00 | 0.00 | 77 | 996.0 |
| 20260507012042 | 8 | 242 | 0.0 | 4.8 | 0.00 | 0.00 | 0.00 | 77 | 996.0 |
| 20260507011547 | 8 | 239 | 0.0 | 4.8 | 0.00 | 0.00 | 0.00 | 77 | 996.1 |
| 20260507011040 | 8 | 240 | 0.0 | 3.2 | 0.00 | 0.00 | 0.00 | 77 | 996.1 |
| 20260507010541 | 8 | 240 | 0.0 | 16.1 | 0.00 | 0.00 | 0.00 | 77 | 996.0 |
| 20260507010044 | 8 | 183 | 1.6 | 16.1 | 0.00 | 0.00 | 0.00 | 77 | 996.0 |
| 20260507005541 | 8 | 246 | 0.0 | 16.1 | 0.00 | 0.00 | 0.00 | 77 | 996.0 |
| 20260507005041 | 8 | 234 | 0.0 | 19.3 | 0.00 | 0.00 | 0.00 | 77 | 996.0 |
| 20260507004540 | 8 | 234 | 3.2 | 19.3 | 0.00 | 0.00 | 0.00 | 77 | 995.9 |
| 20260507004041 | 8 | 237 | 1.6 | 12.9 | 0.00 | 0.00 | 0.00 | 77 | 995.9 |
| 20260507003542 | 8 | 244 | 0.0 | 14.5 | 0.00 | 0.00 | 0.00 | 76 | 995.9 |
| 20260507003040 | 8 | 225 | 0.0 | 14.5 | 0.00 | 0.00 | 0.00 | 76 | 995.8 |
| 20260507002539 | 8 | 229 | 0.0 | 22.5 | 0.00 | 0.00 | 0.00 | 76 | 995.8 |
| 20260507002042 | 8 | 236 | 3.2 | 22.5 | 0.00 | 0.00 | 0.00 | 75 | 995.8 |
| 20260507001540 | 8 | 255 | 0.0 | 17.7 | 0.00 | 0.00 | 0.00 | 75 | 995.7 |
| 20260507001040 | 8 | 244 | 1.6 | 16.1 | 0.00 | 0.00 | 0.00 | 75 | 995.6 |
| 20260507000539 | 9 | 195 | 1.6 | 22.5 | 0.00 | 0.00 | 0.00 | 74 | 995.5 |
| 20260507000039 | 9 | 221 | 3.2 | 22.5 | 0.00 | 0.00 | 0.00 | 74 | 995.5 |
| 20260506235540 | 9 | 236 | 0.0 | 19.3 | 0.00 | 0.00 | 0.00 | 74 | 995.5 |
| 20260506235038 | 9 | 258 | 4.8 | 22.5 | 0.00 | 0.00 | 0.00 | 74 | 995.4 |
| 20260506234551 | 9 | 257 | 3.2 | 24.1 | 0.00 | 0.00 | 0.00 | 73 | 995.5 |
| 20260506234038 | 9 | 235 | 6.4 | 24.1 | 0.00 | 0.00 | 0.00 | 73 | 995.4 |
| 20260506233538 | 9 | 250 | 6.4 | 22.5 | 0.00 | 0.00 | 0.00 | 73 | 995.2 |
| 20260506233047 | 9 | 238 | 1.6 | 24.1 | 0.00 | 0.00 | 0.00 | 73 | 995.2 |
| 20260506232537 | 9 | 242 | 11.3 | 24.1 | 0.00 | 0.00 | 0.00 | 73 | 995.2 |
| 20260506232037 | 9 | 240 | 0.0 | 17.7 | 0.00 | 0.00 | 0.00 | 74 | 995.2 |
| 20260506231537 | 9 | 227 | 1.6 | 17.7 | 0.00 | 0.00 | 0.00 | 73 | 995.2 |
| 20260506231037 | 9 | 235 | 0.0 | 1.6 | 0.00 | 0.00 | 0.00 | 74 | 995.1 |
| 20260506230537 | 9 | 237 | 0.0 | 11.3 | 0.00 | 0.00 | 0.00 | 73 | 995.1 |
| 20260506230037 | 9 | 171 | 0.0 | 1.6 | 0.00 | 0.00 | 0.00 | 74 | 995.1 |
| 20260506225537 | 9 | 229 | 0.0 | 1.6 | 0.00 | 0.00 | 0.00 | 73 | 995.2 |
| 20260506225038 | 9 | 245 | 0.0 | 4.8 | 0.00 | 0.00 | 0.00 | 73 | 995.3 |
| 20260506224540 | 9 | 220 | 0.0 | 3.2 | 0.00 | 0.00 | 0.00 | 73 | 995.3 |
| 20260506224036 | 9 | 248 | 0.0 | 3.2 | 0.00 | 0.00 | 0.00 | 73 | 995.3 |
| 20260506223540 | 9 | 240 | 0.0 | 4.8 | 0.00 | 0.00 | 0.00 | 72 | 995.3 |
| 20260506223036 | 10 | 233 | 0.0 | 6.4 | 0.00 | 0.00 | 0.00 | 72 | 995.3 |
| 20260506222536 | 10 | 226 | 0.0 | 12.9 | 0.00 | 0.00 | 0.00 | 73 | 995.3 |
| 20260506222039 | 10 | 242 | 0.0 | 12.9 | 0.00 | 0.00 | 0.00 | 72 | 995.4 |
| 20260506221536 | 10 | 248 | 0.0 | 6.4 | 0.00 | 0.00 | 0.00 | 72 | 995.2 |
| 20260506221035 | 10 | 231 | 0.0 | 17.7 | 0.00 | 0.00 | 0.00 | 72 | 995.2 |
| 20260506220535 | 10 | 257 | 0.0 | 8.0 | 0.00 | 0.00 | 0.00 | 73 | 995.3 |
| 20260506220036 | 10 | 194 | 0.0 | 3.2 | 0.00 | 0.00 | 0.00 | 73 | 995.3 |
| 20260506215535 | 10 | 190 | 0.0 | 4.8 | 0.00 | 0.00 | 0.00 | 73 | 995.3 |
| 20260506215038 | 10 | 231 | 0.0 | 4.8 | 0.00 | 0.00 | 0.00 | 72 | 995.3 |
| 20260506214535 | 10 | 227 | 0.0 | 1.6 | 0.00 | 0.00 | 0.00 | 73 | 995.3 |
| 20260506214038 | 10 | 208 | 0.0 | 1.6 | 0.00 | 0.00 | 0.00 | 72 | 995.3 |
| 20260506213535 | 10 | 237 | 0.0 | 1.6 | 0.00 | 0.00 | 0.00 | 72 | 995.3 |
| 20260506213038 | 10 | 203 | 0.0 | 8.0 | 0.00 | 0.00 | 0.00 | 72 | 995.2 |
| 20260506212537 | 10 | 197 | 0.0 | 8.0 | 0.00 | 0.00 | 0.00 | 71 | 995.2 |
| 20260506212034 | 10 | 212 | 0.0 | 0.0 | 0.00 | 0.00 | 0.00 | 72 | 995.3 |
| 20260506211534 | 10 | 186 | 0.0 | 8.0 | 0.00 | 0.00 | 0.00 | 72 | 995.3 |
| 20260506211034 | 10 | 217 | 0.0 | 8.0 | 0.00 | 0.00 | 0.00 | 72 | 995.4 |
| 20260506210533 | 10 | 215 | 0.0 | 4.8 | 0.00 | 0.00 | 0.00 | 71 | 995.3 |
| 20260506210036 | 10 | 189 | 0.0 | 6.4 | 0.00 | 0.00 | 0.00 | 71 | 995.3 |
| 20260506205533 | 10 | 190 | 0.0 | 19.3 | 0.00 | 0.00 | 0.00 | 72 | 995.1 |
| 20260506205033 | 10 | 360 | 0.0 | 19.3 | 0.00 | 0.00 | 0.00 | 71 | 995.2 |
| 20260506204536 | 10 | 180 | 0.0 | 12.9 | 0.00 | 0.00 | 0.00 | 70 | 995.2 |
| 20260506204033 | 10 | 143 | 0.0 | 12.9 | 0.00 | 0.00 | 0.00 | 72 | 995.1 |
| 20260506203532 | 10 | 162 | 0.0 | 1.6 | 0.00 | 0.00 | 0.00 | 72 | 995.1 |
| 20260506203038 | 10 | 232 | 0.0 | 9.7 | 0.00 | 0.00 | 0.00 | 72 | 995.2 |
| 20260506202531 | 10 | 174 | 0.0 | 9.7 | 0.00 | 0.00 | 0.00 | 71 | 995.2 |
| 20260506202030 | 10 | 195 | 0.0 | 14.5 | 0.00 | 0.00 | 0.00 | 74 | 995.3 |
| 20260506201536 | 10 | 226 | 1.6 | 14.5 | 0.00 | 0.00 | 0.00 | 73 | 995.5 |
| 20260506201028 | 10 | 192 | 0.0 | 8.0 | 0.00 | 0.00 | 0.00 | 74 | 995.6 |
| 20260506200528 | 10 | 229 | 0.0 | 14.5 | 0.00 | 0.00 | 0.00 | 73 | 995.6 |
| 20260506200030 | 10 | 234 | 0.0 | 14.5 | 0.00 | 0.00 | 0.00 | 74 | 995.6 |
| 20260506195531 | 10 | 194 | 0.0 | 11.3 | 0.00 | 0.00 | 0.00 | 74 | 995.6 |
| 20260506195027 | 10 | 211 | 0.0 | 8.0 | 0.00 | 0.00 | 0.00 | 76 | 995.7 |
| 20260506194526 | 9 | 250 | 0.0 | 11.3 | 0.00 | 0.00 | 0.00 | 76 | 995.7 |
| 20260506194025 | 9 | 214 | 0.0 | 14.5 | 0.00 | 0.00 | 0.00 | 75 | 995.8 |
| 20260506193524 | 9 | 155 | 0.0 | 14.5 | 0.00 | 0.00 | 0.00 | 77 | 995.7 |
| 20260506193024 | 9 | 156 | 0.0 | 12.9 | 0.00 | 0.00 | 0.00 | 77 | 995.8 |
| 20260506192524 | 9 | 247 | 0.0 | 8.0 | 0.00 | 0.00 | 0.00 | 77 | 995.9 |
| 20260506192026 | 9 | 216 | 0.0 | 12.9 | 0.00 | 0.00 | 0.00 | 77 | 995.8 |
| 20260506191524 | 8 | 240 | 0.0 | 12.9 | 0.00 | 0.00 | 0.00 | 77 | 995.7 |
| 20260506191024 | 8 | 209 | 0.0 | 4.8 | 0.00 | 0.00 | 0.00 | 77 | 995.9 |
| 20260506190523 | 8 | 252 | 0.0 | 4.8 | 0.00 | 0.00 | 0.00 | 78 | 995.8 |
| 20260506190024 | 8 | 184 | 0.0 | 3.2 | 0.00 | 0.00 | 0.00 | 78 | 995.7 |
| 20260506185523 | 8 | 177 | 0.0 | 11.3 | 0.00 | 0.00 | 0.00 | 77 | 995.9 |
| 20260506185023 | 8 | 152 | 0.0 | 9.7 | 0.00 | 0.00 | 0.00 | 78 | 995.9 |
| 20260506184523 | 8 | 207 | 0.0 | 9.7 | 0.00 | 0.00 | 0.00 | 79 | 995.9 |
| 20260506184025 | 8 | 228 | 0.0 | 4.8 | 0.00 | 0.00 | 0.00 | 79 | 996.0 |
| 20260506183521 | 8 | 195 | 0.0 | 4.8 | 0.00 | 0.00 | 0.00 | 78 | 996.0 |
| 20260506183021 | 8 | 140 | 0.0 | 3.2 | 0.00 | 0.00 | 0.00 | 78 | 996.0 |
| 20260506182520 | 8 | 249 | 0.0 | 6.4 | 0.00 | 0.00 | 0.00 | 78 | 996.1 |
| 20260506182020 | 8 | 223 | 0.0 | 6.4 | 0.00 | 0.00 | 0.00 | 78 | 996.0 |
| 20260506181520 | 8 | 206 | 0.0 | 8.0 | 0.00 | 0.00 | 0.00 | 78 | 996.0 |
| 20260506181020 | 8 | 229 | 0.0 | 8.0 | 0.00 | 0.00 | 0.00 | 80 | 996.1 |
| 20260506180520 | 8 | 215 | 0.0 | 11.3 | 0.00 | 0.00 | 0.00 | 78 | 996.3 |
| 20260506180026 | 7 | 264 | 0.0 | 11.3 | 0.00 | 0.00 | 0.00 | 78 | 996.2 |
| 20260506175520 | 8 | 233 | 0.0 | 11.3 | 0.00 | 0.00 | 0.00 | 79 | 996.2 |
| 20260506175021 | 7 | 196 | 0.0 | 1.6 | 0.00 | 0.00 | 0.00 | 79 | 996.2 |
| 20260506174521 | 8 | 206 | 0.0 | 1.6 | 0.00 | 0.00 | 0.00 | 80 | 996.2 |
| 20260506174019 | 8 | 205 | 0.0 | 0.0 | 0.00 | 0.00 | 0.00 | 79 | 996.1 |
| 20260506173519 | 8 | 241 | 0.0 | 0.0 | 0.00 | 0.00 | 0.00 | 79 | 996.2 |
| 20260506173021 | 8 | 188 | 0.0 | 0.0 | 0.00 | 0.00 | 0.00 | 80 | 996.2 |
| 20260506172517 | 7 | 216 | 0.0 | 0.0 | 0.00 | 0.00 | 0.00 | 80 | 996.1 |
| 20260506172017 | 7 | 126 | 0.0 | 0.0 | 0.00 | 0.00 | 0.00 | 80 | 996.3 |
| 20260506171519 | 7 | 223 | 0.0 | 0.0 | 0.00 | 0.00 | 0.00 | 81 | 996.4 |
| 20260506171018 | 7 | 184 | 0.0 | 0.0 | 0.00 | 0.00 | 0.00 | 80 | 996.0 |
| 20260506170517 | 7 | 142 | 0.0 | 0.0 | 0.00 | 0.00 | 0.00 | 80 | 996.0 |
| 20260506170017 | 7 | 236 | 0.0 | 0.0 | 0.00 | 0.00 | 0.00 | 81 | 996.2 |
| 20260506165517 | 7 | 205 | 0.0 | 0.0 | 0.00 | 0.00 | 0.00 | 82 | 996.3 |
| 20260506165017 | 7 | 209 | 0.0 | 0.0 | 0.00 | 0.00 | 0.00 | 82 | 996.3 |
| 20260506164517 | 7 | 171 | 0.0 | 1.6 | 0.00 | 0.00 | 0.00 | 82 | 996.4 |
| 20260506164018 | 7 | 207 | 0.0 | 1.6 | 0.00 | 0.00 | 0.00 | 82 | 996.4 |
| 20260506163519 | 7 | 160 | 0.0 | 8.0 | 0.00 | 0.00 | 0.00 | 83 | 996.4 |
| 20260506163023 | 7 | 212 | 0.0 | 8.0 | 0.00 | 0.00 | 0.00 | 83 | 996.4 |
| 20260506162519 | 7 | 207 | 0.0 | 9.7 | 0.00 | 0.00 | 0.00 | 84 | 996.4 |
| 20260506162018 | 7 | 228 | 0.0 | 14.5 | 0.00 | 0.00 | 0.00 | 83 | 996.5 |
| 20260506161517 | 7 | 222 | 1.6 | 14.5 | 0.00 | 0.00 | 0.00 | 83 | 996.6 |
| 20260506161015 | 7 | 186 | 0.0 | 6.4 | 0.00 | 0.00 | 0.00 | 83 | 996.6 |
| 20260506160515 | 7 | 228 | 0.0 | 9.7 | 0.00 | 0.00 | 0.00 | 82 | 996.8 |
| 20260506160017 | 7 | 199 | 0.0 | 9.7 | 0.00 | 0.00 | 0.00 | 82 | 996.5 |
| 20260506155514 | 7 | 199 | 0.0 | 3.2 | 0.00 | 0.00 | 0.00 | 82 | 996.6 |
| 20260506155015 | 7 | 159 | 0.0 | 3.2 | 0.00 | 0.00 | 0.00 | 83 | 996.6 |
| 20260506154514 | 7 | 234 | 0.0 | 4.8 | 0.00 | 0.00 | 0.00 | 82 | 996.8 |
| 20260506154018 | 7 | 188 | 0.0 | 9.7 | 0.00 | 0.00 | 0.00 | 82 | 996.7 |
| 20260506153513 | 7 | 204 | 0.0 | 3.2 | 0.00 | 0.00 | 0.00 | 82 | 996.8 |
| 20260506153013 | 7 | 202 | 0.0 | 0.0 | 0.00 | 0.00 | 0.00 | 82 | 996.6 |
| 20260506152513 | 7 | 184 | 0.0 | 0.0 | 0.00 | 0.00 | 0.00 | 82 | 996.6 |
| 20260506152013 | 7 | 214 | 0.0 | 0.0 | 0.00 | 0.00 | 0.00 | 83 | 996.6 |
| 20260506151512 | 7 | 155 | 0.0 | 0.0 | 0.00 | 0.00 | 0.00 | 82 | 996.7 |
| 20260506151013 | 7 | 221 | 0.0 | 0.0 | 0.00 | 0.00 | 0.00 | 82 | 996.9 |
| 20260506150510 | 7 | 241 | 0.0 | 0.0 | 0.00 | 0.00 | 0.00 | 83 | 996.8 |
| 20260506150010 | 7 | 191 | 0.0 | 1.6 | 0.00 | 0.00 | 0.00 | 83 | 996.9 |
| 20260506145509 | 7 | 219 | 0.0 | 1.6 | 0.00 | 0.00 | 0.00 | 84 | 997.0 |
| 20260506145008 | 7 | 224 | 0.0 | 0.0 | 0.00 | 0.00 | 0.00 | 85 | 996.9 |
| 20260506144507 | 7 | 219 | 0.0 | 0.0 | 0.00 | 0.00 | 0.00 | 87 | 996.9 |
| 20260506144007 | 6 | 189 | 0.0 | 0.0 | 0.00 | 0.00 | 0.00 | 87 | 996.8 |
| 20260506143507 | 6 | 193 | 0.0 | 0.0 | 0.00 | 0.00 | 0.00 | 87 | 996.7 |
| 20260506143006 | 6 | 200 | 0.0 | 0.0 | 0.00 | 0.00 | 0.00 | 88 | 996.7 |
| 20260506142509 | 6 | 232 | 0.0 | 0.0 | 0.00 | 0.00 | 0.00 | 88 | 996.6 |
| 20260506142007 | 6 | 250 | 0.0 | 0.0 | 0.00 | 0.00 | 0.00 | 89 | 996.7 |
| 20260506141503 | 6 | 203 | 0.0 | 0.0 | 0.00 | 0.00 | 0.00 | 89 | 996.6 |
| 20260506141004 | 6 | 207 | 0.0 | 0.0 | 0.00 | 0.00 | 0.00 | 89 | 996.6 |
| 20260506140601 | 6 | 235 | 0.0 | 0.0 | 0.00 | 0.00 | 0.00 | 89 | 996.5 |
| 20260506140100 | 6 | 201 | 0.0 | 0.0 | 0.00 | 0.00 | 0.00 | 89 | 996.7 |
| 20260506135559 | 6 | 214 | 0.0 | 0.0 | 0.00 | 0.00 | 0.00 | 89 | 996.6 |
| 20260506135058 | 6 | 210 | 0.0 | 0.0 | 0.00 | 0.00 | 0.00 | 89 | 996.7 |
| 20260506134557 | 6 | 224 | 0.0 | 0.0 | 0.00 | 0.00 | 0.00 | 88 | 996.7 |
| 20260506134057 | 6 | 197 | 0.0 | 0.0 | 0.00 | 0.00 | 0.00 | 88 | 996.8 |
| 20260506133554 | 6 | 256 | 0.0 | 0.0 | 0.00 | 0.00 | 0.00 | 87 | 996.7 |
| 20260506133054 | 6 | 247 | 0.0 | 0.0 | 0.00 | 0.00 | 0.00 | 86 | 996.8 |
| 20260506132553 | 6 | 228 | 0.0 | 0.0 | 0.00 | 0.00 | 0.00 | 86 | 996.8 |
| 20260506132052 | 6 | 294 | 0.0 | 0.0 | 0.00 | 0.00 | 0.00 | 85 | 996.7 |
| 20260506131601 | 6 | 171 | 0.0 | 0.0 | 0.00 | 0.00 | 0.00 | 85 | 996.7 |
| 20260506131052 | 6 | 196 | 0.0 | 1.6 | 0.00 | 0.00 | 0.00 | 85 | 996.7 |
| 20260506130552 | 6 | 180 | 0.0 | 0.0 | 0.00 | 0.00 | 0.00 | 85 | 996.7 |
| 20260506130112 | 6 | 227 | 0.0 | 0.0 | 0.00 | 0.00 | 0.00 | 85 | 996.8 |
| 20260506125551 | 6 | 186 | 0.0 | 11.3 | 0.00 | 0.00 | 0.00 | 84 | 996.7 |
| 20260506125052 | 7 | 186 | 0.0 | 11.3 | 0.00 | 0.00 | 0.00 | 85 | 996.7 |
| 20260506124558 | 7 | 192 | 0.0 | 0.0 | 0.00 | 0.00 | 0.00 | 84 | 996.6 |
| 20260506124051 | 7 | 209 | 0.0 | 0.0 | 0.00 | 0.00 | 0.00 | 85 | 996.4 |
| 20260506123550 | 7 | 153 | 0.0 | 3.2 | 0.00 | 0.00 | 0.00 | 85 | 996.5 |
| 20260506123050 | 6 | 221 | 0.0 | 3.2 | 0.00 | 0.00 | 0.00 | 85 | 996.6 |
| 20260506122552 | 6 | 205 | 0.0 | 4.8 | 0.00 | 0.00 | 0.00 | 85 | 996.5 |
| 20260506122048 | 6 | 245 | 0.0 | 9.7 | 0.00 | 0.00 | 0.00 | 85 | 996.6 |
| 20260506121548 | 6 | 213 | 1.6 | 9.7 | 0.00 | 0.00 | 0.00 | 85 | 996.6 |
| 20260506121047 | 6 | 194 | 0.0 | 4.8 | 0.00 | 0.00 | 0.00 | 85 | 996.6 |
| 20260506120550 | 7 | 224 | 0.0 | 4.8 | 0.00 | 0.00 | 0.00 | 86 | 996.5 |
| 20260506120047 | 7 | 188 | 0.0 | 1.6 | 0.00 | 0.00 | 0.00 | 86 | 996.7 |
| 20260506115545 | 7 | 197 | 0.0 | 0.0 | 0.00 | 0.00 | 0.00 | 86 | 996.8 |
| 20260506115045 | 7 | 227 | 0.0 | 3.2 | 0.00 | 0.00 | 0.00 | 85 | 996.6 |
| 20260506114544 | 7 | 210 | 0.0 | 4.8 | 0.00 | 0.00 | 0.00 | 85 | 996.6 |
| 20260506114043 | 7 | 187 | 0.0 | 4.8 | 0.00 | 0.00 | 0.00 | 84 | 996.6 |
| 20260506113542 | 7 | 233 | 0.0 | 1.6 | 0.00 | 0.00 | 0.00 | 85 | 996.5 |
| 20260506113050 | 7 | 192 | 0.0 | 0.0 | 0.00 | 0.00 | 0.00 | 85 | 996.4 |
| 20260506112642 | 7 | 160 | 0.0 | 0.0 | 0.00 | 0.00 | 0.00 | 85 | 996.3 |
| 20260506112042 | 7 | 159 | 0.0 | 0.0 | 0.00 | 0.00 | 0.00 | 85 | 996.2 |
| 20260506111541 | 7 | 188 | 0.0 | 0.0 | 0.00 | 0.00 | 0.00 | 86 | 996.3 |
| 20260506111038 | 7 | 178 | 0.0 | 1.6 | 0.00 | 0.00 | 0.00 | 86 | 996.3 |
| 20260506110538 | 7 | 159 | 0.0 | 1.6 | 0.00 | 0.00 | 0.00 | 87 | 996.2 |
| 20260506110045 | 7 | 159 | 0.0 | 0.0 | 0.00 | 0.00 | 0.00 | 87 | 996.3 |
| 20260506105537 | 7 | 159 | 0.0 | 0.0 | 0.00 | 0.00 | 0.00 | 87 | 996.1 |
| 20260506105037 | 7 | 159 | 0.0 | 0.0 | 0.00 | 0.00 | 0.00 | 87 | 996.1 |
| 20260506104541 | 7 | 162 | 0.0 | 0.0 | 0.00 | 0.00 | 0.00 | 87 | 996.2 |
| 20260506104035 | 7 | 162 | 0.0 | 0.0 | 0.00 | 0.00 | 0.00 | 87 | 996.3 |
| 20260506103534 | 7 | 192 | 0.0 | 0.0 | 0.00 | 0.00 | 0.00 | 87 | 996.3 |
| 20260506103044 | 7 | 261 | 0.0 | 0.0 | 0.00 | 0.00 | 0.00 | 87 | 996.3 |
| 20260506102534 | 7 | 261 | 0.0 | 0.0 | 0.00 | 0.00 | 0.00 | 87 | 996.4 |
| 20260506102034 | 7 | 261 | 0.0 | 0.0 | 0.00 | 0.00 | 0.00 | 87 | 996.4 |
| 20260506101548 | 7 | 261 | 0.0 | 0.0 | 0.00 | 0.00 | 0.00 | 87 | 996.5 |
| 20260506101033 | 7 | 230 | 0.0 | 0.0 | 0.00 | 0.00 | 0.00 | 87 | 996.4 |
| 20260506100534 | 7 | 249 | 0.0 | 0.0 | 0.00 | 0.00 | 0.00 | 87 | 996.5 |
| 20260506100048 | 7 | 249 | 0.0 | 0.0 | 0.00 | 0.00 | 0.00 | 87 | 996.6 |
| 20260506095532 | 7 | 248 | 0.0 | 0.0 | 0.00 | 0.00 | 0.00 | 87 | 996.4 |
| 20260506095033 | 7 | 279 | 0.0 | 0.0 | 0.00 | 0.00 | 0.00 | 87 | 996.3 |
| 20260506094532 | 7 | 181 | 0.0 | 0.0 | 0.00 | 0.00 | 0.00 | 87 | 996.1 |
| 20260506094031 | 7 | 211 | 0.0 | 0.0 | 0.00 | 0.00 | 0.00 | 87 | 996.1 |
| 20260506093530 | 7 | 189 | 0.0 | 0.0 | 0.00 | 0.00 | 0.00 | 87 | 996.0 |
| 20260506093039 | 7 | 196 | 0.0 | 0.0 | 0.00 | 0.00 | 0.00 | 86 | 995.9 |
| 20260506092530 | 7 | 169 | 0.0 | 0.0 | 0.00 | 0.00 | 0.00 | 86 | 996.0 |
| 20260506092029 | 7 | 194 | 0.0 | 1.6 | 0.00 | 0.00 | 0.00 | 86 | 996.0 |
| 20260506091534 | 7 | 194 | 0.0 | 1.6 | 0.00 | 0.00 | 0.00 | 86 | 996.0 |
| 20260506091032 | 7 | 198 | 0.0 | 0.0 | 0.00 | 0.00 | 0.00 | 86 | 996.1 |
| 20260506090528 | 7 | 198 | 0.0 | 0.0 | 0.00 | 0.00 | 0.00 | 86 | 996.2 |
| 20260506090028 | 7 | 197 | 0.0 | 1.6 | 0.00 | 0.00 | 0.00 | 86 | 996.3 |
| 20260506085531 | 7 | 197 | 0.0 | 1.6 | 0.00 | 0.00 | 0.00 | 86 | 996.3 |
| 20260506085027 | 7 | 226 | 0.0 | 0.0 | 0.00 | 0.00 | 0.00 | 85 | 996.3 |
| 20260506084528 | 7 | 226 | 0.0 | 0.0 | 0.00 | 0.00 | 0.00 | 85 | 996.5 |
| 20260506084027 | 7 | 226 | 0.0 | 0.0 | 0.00 | 0.00 | 0.00 | 85 | 996.4 |
| 20260506083527 | 7 | 226 | 0.0 | 0.0 | 0.00 | 0.00 | 0.00 | 85 | 996.5 |
| 20260506083025 | 7 | 226 | 0.0 | 0.0 | 0.00 | 0.00 | 0.00 | 85 | 996.5 |
| 20260506082528 | 7 | 210 | 0.0 | 0.0 | 0.00 | 0.00 | 0.00 | 85 | 996.4 |
| 20260506082028 | 7 | 211 | 0.0 | 0.0 | 0.00 | 0.00 | 0.00 | 84 | 996.2 |
| 20260506081531 | 7 | 211 | 0.0 | 0.0 | 0.00 | 0.00 | 0.00 | 84 | 996.1 |
| 20260506081023 | 8 | 211 | 0.0 | 0.0 | 0.00 | 0.00 | 0.00 | 84 | 995.9 |
| 20260506080523 | 8 | 241 | 0.0 | 0.0 | 0.00 | 0.00 | 0.00 | 84 | 995.9 |
| 20260506073520 | 8 | 252 | 0.0 | 0.0 | 0.00 | 0.00 | 0.00 | 81 | 996.1 |
| 20260506073034 | 8 | 254 | 0.0 | 0.0 | 0.00 | 0.00 | 0.00 | 81 | 996.0 |
| 20260506072519 | 8 | 254 | 0.0 | 0.0 | 0.00 | 0.00 | 0.00 | 80 | 996.1 |
| 20260506072019 | 8 | 225 | 0.0 | 8.0 | 0.00 | 0.00 | 0.00 | 80 | 996.3 |
| 20260506071519 | 8 | 250 | 0.0 | 0.0 | 0.00 | 0.00 | 0.00 | 79 | 996.2 |
| 20260506071018 | 8 | 236 | 0.0 | 0.0 | 0.00 | 0.00 | 0.00 | 78 | 996.3 |
| 20260506070516 | 8 | 244 | 0.0 | 0.0 | 0.00 | 0.00 | 0.00 | 76 | 996.0 |
| 20260506062510 | 8 | 232 | 0.0 | 0.0 | 0.00 | 0.00 | 0.00 | 63 | 995.9 |
| 20260506062010 | 8 | 247 | 0.0 | 0.0 | 0.00 | 0.00 | 0.00 | 62 | 996.0 |
| 20260506061509 | 9 | 249 | 0.0 | 0.0 | 0.00 | 0.00 | 0.00 | 62 | 996.0 |
| 20260506061009 | 9 | 249 | 0.0 | 0.0 | 0.00 | 0.00 | 0.00 | 61 | 996.0 |
| 20260506060509 | 9 | 257 | 0.0 | 6.4 | 0.00 | 0.00 | 0.00 | 61 | 996.0 |
| 20260506051002 | 9 | 254 | 0.0 | 4.8 | 0.00 | 0.00 | 0.00 | 59 | 995.9 |
| 20260506050501 | 9 | 360 | 0.0 | 4.8 | 0.00 | 0.00 | 0.00 | 59 | 996.0 |
| 20260506050104 | 10 | 360 | 0.0 | 3.2 | 0.00 | 0.00 | 0.00 | 58 | 995.8 |
| 20260506045100 | 10 | 360 | 0.0 | 1.6 | 0.00 | 0.00 | 0.00 | 58 | 995.7 |
| 20260506044705 | 10 | 360 | 0.0 | 1.6 | 0.00 | 0.00 | 0.00 | 58 | 995.8 |
| 20260506044103 | 10 | 360 | 0.0 | 12.9 | 0.00 | 0.00 | 0.00 | 58 | 995.8 |
| 20260506043557 | 10 | 360 | 0.0 | 12.9 | 0.00 | 0.00 | 0.00 | 57 | 995.8 |
| 20260506043108 | 10 | 360 | 0.0 | 6.4 | 0.00 | 0.00 | 0.00 | 57 | 995.8 |
| 20260506042557 | 10 | 228 | 0.0 | 6.4 | 0.00 | 0.00 | 0.00 | 57 | 995.6 |
| 20260506042056 | 10 | 257 | 0.0 | 0.0 | 0.00 | 0.00 | 0.00 | 56 | 995.7 |
| 20260506041603 | 10 | 261 | 0.0 | 0.0 | 0.00 | 0.00 | 0.00 | 56 | 995.6 |
| 20260506041055 | 10 | 257 | 0.0 | 0.0 | 0.00 | 0.00 | 0.00 | 56 | 995.7 |
| 20260506040557 | 10 | 246 | 0.0 | 0.0 | 0.00 | 0.00 | 0.00 | 56 | 995.6 |
| 20260506040055 | 10 | 252 | 0.0 | 1.6 | 0.00 | 0.00 | 0.00 | 56 | 995.6 |
| 20260506035553 | 10 | 246 | 0.0 | 1.6 | 0.00 | 0.00 | 0.00 | 56 | 995.5 |
| 20260506035053 | 10 | 245 | 0.0 | 0.0 | 0.00 | 0.00 | 0.00 | 56 | 995.5 |
| 20260506034624 | 10 | 264 | 0.0 | 0.0 | 0.00 | 0.00 | 0.00 | 56 | 995.5 |
| 20260506034052 | 10 | 244 | 0.0 | 0.0 | 0.00 | 0.00 | 0.00 | 57 | 995.4 |
| 20260506033551 | 10 | 244 | 0.0 | 0.0 | 0.00 | 0.00 | 0.00 | 56 | 995.5 |
| 20260506033057 | 10 | 236 | 0.0 | 0.0 | 0.00 | 0.00 | 0.00 | 56 | 995.5 |
| 20260506032551 | 10 | 259 | 0.0 | 0.0 | 0.00 | 0.00 | 0.00 | 55 | 995.6 |
| 20260506032049 | 10 | 261 | 0.0 | 0.0 | 0.00 | 0.00 | 0.00 | 55 | 995.3 |
| 20260506031549 | 10 | 254 | 0.0 | 0.0 | 0.00 | 0.00 | 0.00 | 55 | 995.2 |